Time,TemperatureF,DewpointF,PressureIn,WindDirection,WindDirectionDegrees,WindSpeedMPH,WindSpeedGustMPH,Humidity,HourlyPrecipIn,Conditions,Clouds,dailyrainin,SolarRadiationWatts/m^2,SoftwareType,DateUTC
2013-08-08 00:01:00,70.6,64.5,29.90,SE,139,0.0,2.0,81,0.00,,,0.00,0,WeatherCatV1.15B25,2013-08-08 05:01:00,
2013-08-08 00:06:00,70.6,64.5,29.90,SE,138,0.0,0.0,81,0.00,,,0.00,0,WeatherCatV1.15B25,2013-08-08 05:06:00,
2013-08-08 00:11:00,70.6,64.5,29.90,SE,139,1.0,2.0,81,0.00,,,0.00,0,WeatherCatV1.15B25,2013-08-08 05:11:00,
2013-08-08 00:16:00,70.7,64.2,29.90,SE,139,0.0,3.0,80,0.00,,,0.00,0,WeatherCatV1.15B25,2013-08-08 05:16:00,
2013-08-08 00:21:00,70.8,64.0,29.90,SE,139,0.0,1.0,79,0.00,,,0.00,0,WeatherCatV1.15B25,2013-08-08 05:21:00,
2013-08-08 00:26:00,70.9,64.1,29.91,SE,139,0.0,3.0,79,0.00,,,0.00,0,WeatherCatV1.15B25,2013-08-08 05:26:00,
2013-08-08 00:31:00,70.8,63.6,29.90,SE,139,0.0,5.0,78,0.00,,,0.00,0,WeatherCatV1.15B25,2013-08-08 05:31:00,
2013-08-08 00:36:00,70.8,63.6,29.90,SE,139,0.0,4.0,78,0.00,,,0.00,0,WeatherCatV1.15B25,2013-08-08 05:36:00,
2013-08-08 00:41:00,70.7,63.9,29.90,SE,138,0.0,1.0,79,0.00,,,0.00,0,WeatherCatV1.15B25,2013-08-08 05:41:00,
2013-08-08 00:46:00,70.5,63.7,29.90,SE,139,0.0,1.0,79,0.00,,,0.00,0,WeatherCatV1.15B25,2013-08-08 05:46:00,
2013-08-08 00:51:00,70.4,63.9,29.90,SE,139,4.0,6.0,80,0.00,,,0.00,0,WeatherCatV1.15B25,2013-08-08 05:51:00,
2013-08-08 00:56:00,70.3,63.8,29.90,SE,138,0.0,2.0,80,0.00,,,0.00,0,WeatherCatV1.15B25,2013-08-08 05:56:00,
2013-08-08 01:01:00,70.2,63.7,29.90,SE,139,2.0,3.0,80,0.00,,,0.00,0,WeatherCatV1.15B25,2013-08-08 06:01:00,
2013-08-08 01:06:00,70.2,63.7,29.90,SE,139,5.0,6.0,80,0.00,,,0.00,0,WeatherCatV1.15B25,2013-08-08 06:06:00,
2013-08-08 01:11:00,70.2,63.7,29.90,SE,138,0.0,4.0,80,0.00,,,0.00,0,WeatherCatV1.15B25,2013-08-08 06:11:00,
2013-08-08 01:16:00,70.1,63.6,29.90,SE,139,1.0,5.0,80,0.00,,,0.00,0,WeatherCatV1.15B25,2013-08-08 06:16:00,
2013-08-08 01:21:00,69.9,63.8,29.90,SE,139,4.0,4.0,81,0.00,,,0.00,0,WeatherCatV1.15B25,2013-08-08 06:21:00,
2013-08-08 01:26:00,69.8,63.7,29.90,SE,139,3.0,4.0,81,0.00,,,0.00,0,WeatherCatV1.15B25,2013-08-08 06:26:00,
2013-08-08 01:31:00,69.7,63.6,29.89,SE,139,0.0,10.0,81,0.00,,,0.00,0,WeatherCatV1.15B25,2013-08-08 06:31:00,
2013-08-08 01:36:00,69.6,63.9,29.89,SE,139,2.0,4.0,82,0.00,,,0.00,0,WeatherCatV1.15B25,2013-08-08 06:36:00,
2013-08-08 01:41:00,69.5,63.8,29.89,SE,139,0.0,5.0,82,0.00,,,0.00,0,WeatherCatV1.15B25,2013-08-08 06:41:00,
2013-08-08 01:46:00,69.4,63.7,29.89,SE,139,2.0,6.0,82,0.00,,,0.00,0,WeatherCatV1.15B25,2013-08-08 06:46:00,
2013-08-08 01:51:00,69.3,63.6,29.89,SE,139,3.0,3.0,82,0.00,,,0.00,0,WeatherCatV1.15B25,2013-08-08 06:51:00,
2013-08-08 01:56:00,69.2,63.8,29.89,SE,139,0.0,5.0,83,0.00,,,0.00,0,WeatherCatV1.15B25,2013-08-08 06:56:00,
2013-08-08 02:01:00,69.2,63.8,29.88,SE,139,2.0,4.0,83,0.00,,,0.00,0,WeatherCatV1.15B25,2013-08-08 07:01:00,
2013-08-08 02:06:00,69.1,63.7,29.88,SE,139,0.0,3.0,83,0.00,,,0.00,0,WeatherCatV1.15B25,2013-08-08 07:06:00,
2013-08-08 02:11:00,68.9,63.5,29.88,SE,139,0.0,4.0,83,0.00,,,0.00,0,WeatherCatV1.15B25,2013-08-08 07:11:00,
2013-08-08 02:16:00,68.9,63.5,29.88,SE,139,0.0,1.0,83,0.00,,,0.00,0,WeatherCatV1.15B25,2013-08-08 07:16:00,
2013-08-08 02:21:00,68.8,63.4,29.88,SE,138,2.0,4.0,83,0.00,,,0.00,0,WeatherCatV1.15B25,2013-08-08 07:21:00,
2013-08-08 02:26:00,68.8,63.4,29.88,SE,138,0.0,6.0,83,0.00,,,0.00,0,WeatherCatV1.15B25,2013-08-08 07:26:00,
2013-08-08 02:31:00,68.7,63.3,29.88,SE,138,0.0,1.0,83,0.00,,,0.00,0,WeatherCatV1.15B25,2013-08-08 07:31:00,
2013-08-08 02:36:00,68.7,63.3,29.88,SE,138,2.0,3.0,83,0.00,,,0.00,0,WeatherCatV1.15B25,2013-08-08 07:36:00,
2013-08-08 02:41:00,68.7,63.3,29.88,SE,138,0.0,6.0,83,0.00,,,0.00,0,WeatherCatV1.15B25,2013-08-08 07:41:00,
2013-08-08 02:46:00,68.6,63.2,29.88,SE,138,3.0,5.0,83,0.00,,,0.00,0,WeatherCatV1.15B25,2013-08-08 07:46:00,
2013-08-08 02:51:00,68.5,63.1,29.88,SE,137,3.0,3.0,83,0.00,,,0.00,0,WeatherCatV1.15B25,2013-08-08 07:51:00,
2013-08-08 02:56:00,68.4,63.0,29.88,SE,138,0.0,1.0,83,0.00,,,0.00,0,WeatherCatV1.15B25,2013-08-08 07:56:00,
2013-08-08 03:01:00,68.4,63.0,29.88,SE,138,0.0,0.0,83,0.00,,,0.00,0,WeatherCatV1.15B25,2013-08-08 08:01:00,
2013-08-08 03:06:00,68.4,63.0,29.88,SE,137,0.0,2.0,83,0.00,,,0.00,0,WeatherCatV1.15B25,2013-08-08 08:06:00,
2013-08-08 03:11:00,68.3,62.9,29.88,SE,138,0.0,4.0,83,0.00,,,0.00,0,WeatherCatV1.15B25,2013-08-08 08:11:00,
2013-08-08 03:16:00,68.3,62.9,29.88,SE,138,3.0,5.0,83,0.00,,,0.00,0,WeatherCatV1.15B25,2013-08-08 08:16:00,
2013-08-08 03:21:00,68.3,62.9,29.88,SE,138,0.0,2.0,83,0.00,,,0.00,0,WeatherCatV1.15B25,2013-08-08 08:21:00,
2013-08-08 03:26:00,68.2,62.8,29.87,SE,138,0.0,3.0,83,0.00,,,0.00,0,WeatherCatV1.15B25,2013-08-08 08:26:00,
2013-08-08 03:31:00,68.1,62.7,29.87,SE,138,0.0,0.0,83,0.00,,,0.00,0,WeatherCatV1.15B25,2013-08-08 08:31:00,
2013-08-08 03:36:00,68.1,62.7,29.87,SE,137,2.0,4.0,83,0.00,,,0.00,0,WeatherCatV1.15B25,2013-08-08 08:36:00,
2013-08-08 03:41:00,68.0,62.6,29.87,SE,138,0.0,6.0,83,0.00,,,0.00,0,WeatherCatV1.15B25,2013-08-08 08:41:00,
2013-08-08 03:46:00,68.0,63.0,29.87,SE,137,0.0,0.0,84,0.00,,,0.00,0,WeatherCatV1.15B25,2013-08-08 08:46:00,
2013-08-08 03:51:00,67.9,62.9,29.87,SE,137,0.0,1.0,84,0.00,,,0.00,0,WeatherCatV1.15B25,2013-08-08 08:51:00,
2013-08-08 03:56:00,67.8,62.8,29.87,SE,138,0.0,3.0,84,0.00,,,0.00,0,WeatherCatV1.15B25,2013-08-08 08:56:00,
2013-08-08 04:01:00,67.6,62.6,29.87,SE,137,0.0,3.0,84,0.00,,,0.00,0,WeatherCatV1.15B25,2013-08-08 09:01:00,
2013-08-08 04:06:00,67.6,62.6,29.86,SE,137,0.0,0.0,84,0.00,,,0.00,0,WeatherCatV1.15B25,2013-08-08 09:06:00,
2013-08-08 04:11:00,67.6,62.6,29.86,SE,138,0.0,0.0,84,0.00,,,0.00,0,WeatherCatV1.15B25,2013-08-08 09:11:00,
2013-08-08 04:16:00,67.5,62.8,29.86,SE,137,0.0,0.0,85,0.00,,,0.00,0,WeatherCatV1.15B25,2013-08-08 09:16:00,
2013-08-08 04:21:00,67.4,62.7,29.86,SE,137,0.0,0.0,85,0.00,,,0.00,0,WeatherCatV1.15B25,2013-08-08 09:21:00,
2013-08-08 04:26:00,67.4,62.7,29.85,SE,138,0.0,0.0,85,0.00,,,0.00,0,WeatherCatV1.15B25,2013-08-08 09:26:00,
2013-08-08 04:31:00,67.3,62.6,29.85,SE,138,0.0,4.0,85,0.00,,,0.00,0,WeatherCatV1.15B25,2013-08-08 09:31:00,
2013-08-08 04:36:00,67.2,62.5,29.84,SE,137,0.0,2.0,85,0.00,,,0.00,0,WeatherCatV1.15B25,2013-08-08 09:36:00,
2013-08-08 04:41:00,67.2,62.5,29.84,SE,138,0.0,4.0,85,0.00,,,0.00,0,WeatherCatV1.15B25,2013-08-08 09:41:00,
2013-08-08 04:46:00,67.1,62.4,29.85,SE,138,0.0,3.0,85,0.00,,,0.00,0,WeatherCatV1.15B25,2013-08-08 09:46:00,
2013-08-08 04:51:00,67.1,62.4,29.85,SE,137,2.0,4.0,85,0.00,,,0.00,0,WeatherCatV1.15B25,2013-08-08 09:51:00,
2013-08-08 04:56:00,67.0,62.3,29.85,SE,138,0.0,0.0,85,0.00,,,0.00,0,WeatherCatV1.15B25,2013-08-08 09:56:00,
2013-08-08 05:01:00,67.0,62.3,29.85,SE,138,1.0,3.0,85,0.00,,,0.00,0,WeatherCatV1.15B25,2013-08-08 10:01:00,
2013-08-08 05:06:00,67.1,62.4,29.84,SE,138,2.0,6.0,85,0.00,,,0.00,0,WeatherCatV1.15B25,2013-08-08 10:06:00,
2013-08-08 05:11:00,67.2,62.2,29.84,SE,137,2.0,7.0,84,0.00,,,0.00,0,WeatherCatV1.15B25,2013-08-08 10:11:00,
2013-08-08 05:16:00,67.3,62.3,29.85,SE,138,2.0,6.0,84,0.00,,,0.00,0,WeatherCatV1.15B25,2013-08-08 10:16:00,
2013-08-08 05:21:00,67.3,62.0,29.85,SE,137,5.0,5.0,83,0.00,,,0.00,0,WeatherCatV1.15B25,2013-08-08 10:21:00,
2013-08-08 05:26:00,67.3,62.0,29.85,SE,137,1.0,3.0,83,0.00,,,0.00,0,WeatherCatV1.15B25,2013-08-08 10:26:00,
2013-08-08 05:31:00,67.2,61.9,29.85,SE,137,1.0,3.0,83,0.00,,,0.00,0,WeatherCatV1.15B25,2013-08-08 10:31:00,
2013-08-08 05:36:00,67.1,61.8,29.85,SE,137,0.0,3.0,83,0.00,,,0.00,0,WeatherCatV1.15B25,2013-08-08 10:36:00,
2013-08-08 05:41:00,67.1,61.8,29.85,SE,137,1.0,4.0,83,0.00,,,0.00,0,WeatherCatV1.15B25,2013-08-08 10:41:00,
2013-08-08 05:46:00,67.0,62.0,29.86,SE,137,1.0,5.0,84,0.00,,,0.00,0,WeatherCatV1.15B25,2013-08-08 10:46:00,
2013-08-08 05:51:00,66.9,61.9,29.86,SE,137,7.0,7.0,84,0.00,,,0.00,0,WeatherCatV1.15B25,2013-08-08 10:51:00,
2013-08-08 05:56:00,66.8,61.8,29.87,SE,136,5.0,6.0,84,0.00,,,0.00,0,WeatherCatV1.15B25,2013-08-08 10:56:00,
2013-08-08 06:01:00,66.9,61.9,29.87,SE,136,0.0,2.0,84,0.00,,,0.00,0,WeatherCatV1.15B25,2013-08-08 11:01:00,
2013-08-08 06:06:00,66.8,61.8,29.87,SE,136,0.0,5.0,84,0.00,,,0.00,0,WeatherCatV1.15B25,2013-08-08 11:06:00,
2013-08-08 06:11:00,66.9,61.9,29.87,SE,136,0.0,5.0,84,0.00,,,0.00,0,WeatherCatV1.15B25,2013-08-08 11:11:00,
2013-08-08 06:16:00,66.9,61.9,29.87,SE,136,1.0,2.0,84,0.00,,,0.00,0,WeatherCatV1.15B25,2013-08-08 11:16:00,
2013-08-08 06:21:00,66.9,61.9,29.87,SE,136,0.0,2.0,84,0.00,,,0.00,0,WeatherCatV1.15B25,2013-08-08 11:21:00,
2013-08-08 06:26:00,66.8,61.8,29.87,SE,136,0.0,5.0,84,0.00,,,0.00,0,WeatherCatV1.15B25,2013-08-08 11:26:00,
2013-08-08 06:31:00,66.7,61.7,29.87,SE,136,1.0,4.0,84,0.00,,,0.00,0,WeatherCatV1.15B25,2013-08-08 11:31:00,
2013-08-08 06:36:00,66.5,61.5,29.87,SE,136,2.0,2.0,84,0.00,,,0.00,0,WeatherCatV1.15B25,2013-08-08 11:36:00,
2013-08-08 06:41:00,66.4,61.4,29.88,SE,136,1.0,1.0,84,0.00,,,0.00,0,WeatherCatV1.15B25,2013-08-08 11:41:00,
2013-08-08 06:46:00,66.3,61.6,29.88,SE,136,1.0,3.0,85,0.00,,,0.00,5,WeatherCatV1.15B25,2013-08-08 11:46:00,
2013-08-08 06:51:00,66.2,61.5,29.88,SE,136,0.0,2.0,85,0.00,,,0.00,9,WeatherCatV1.15B25,2013-08-08 11:51:00,
2013-08-08 06:53:00,66.1,61.5,29.88,SE,136,0.0,1.0,85,0.00,,,0.00,11,WeatherCatV1.15B25,2013-08-08 11:53:00,
2013-08-08 06:56:00,66.1,61.5,29.88,SE,136,0.0,2.0,85,0.00,,,0.00,14,WeatherCatV1.15B25,2013-08-08 11:56:00,
2013-08-08 07:01:00,66.0,61.7,29.88,SE,136,0.0,1.0,86,0.00,,,0.00,18,WeatherCatV1.15B25,2013-08-08 12:01:00,
2013-08-08 07:06:00,65.9,61.6,29.89,SE,136,0.0,0.0,86,0.00,,,0.00,21,WeatherCatV1.15B25,2013-08-08 12:06:00,
2013-08-08 07:11:00,65.9,61.6,29.90,SE,136,0.0,0.0,86,0.00,,,0.00,25,WeatherCatV1.15B25,2013-08-08 12:11:00,
2013-08-08 07:16:00,65.9,61.6,29.90,SE,136,0.0,0.0,86,0.00,,,0.00,30,WeatherCatV1.15B25,2013-08-08 12:16:00,
2013-08-08 07:21:00,65.9,61.6,29.90,SE,136,0.0,0.0,86,0.00,,,0.00,30,WeatherCatV1.15B25,2013-08-08 12:21:00,
2013-08-08 07:26:00,65.9,61.6,29.91,SE,136,0.0,0.0,86,0.00,,,0.00,33,WeatherCatV1.15B25,2013-08-08 12:26:00,
2013-08-08 07:31:00,66.0,61.7,29.91,SE,136,0.0,0.0,86,0.00,,,0.00,40,WeatherCatV1.15B25,2013-08-08 12:31:00,
2013-08-08 07:36:00,66.1,61.8,29.91,SE,136,0.0,0.0,86,0.00,,,0.00,44,WeatherCatV1.15B25,2013-08-08 12:36:00,
2013-08-08 07:41:00,66.2,61.9,29.91,SE,136,0.0,1.0,86,0.00,,,0.00,42,WeatherCatV1.15B25,2013-08-08 12:41:00,
2013-08-08 07:46:00,66.2,61.9,29.91,SE,136,0.0,0.0,86,0.00,,,0.00,40,WeatherCatV1.15B25,2013-08-08 12:46:00,
2013-08-08 07:51:00,66.3,62.0,29.91,SE,136,0.0,2.0,86,0.00,,,0.00,42,WeatherCatV1.15B25,2013-08-08 12:51:00,
2013-08-08 07:56:00,66.3,62.0,29.92,SE,136,0.0,0.0,86,0.00,,,0.00,46,WeatherCatV1.15B25,2013-08-08 12:56:00,
2013-08-08 08:01:00,66.3,62.0,29.92,SE,136,0.0,0.0,86,0.00,,,0.00,49,WeatherCatV1.15B25,2013-08-08 13:01:00,
2013-08-08 08:06:00,66.4,62.1,29.92,SE,136,0.0,3.0,86,0.00,,,0.00,51,WeatherCatV1.15B25,2013-08-08 13:06:00,
2013-08-08 08:11:00,66.4,62.1,29.93,SE,136,0.0,1.0,86,0.00,,,0.00,54,WeatherCatV1.15B25,2013-08-08 13:11:00,
2013-08-08 08:16:00,66.5,62.2,29.93,SE,136,0.0,0.0,86,0.00,,,0.00,60,WeatherCatV1.15B25,2013-08-08 13:16:00,
2013-08-08 08:21:00,66.5,62.2,29.93,SE,136,0.0,0.0,86,0.00,,,0.00,77,WeatherCatV1.15B25,2013-08-08 13:21:00,
2013-08-08 08:26:00,66.6,62.3,29.93,SE,136,0.0,0.0,86,0.00,,,0.00,97,WeatherCatV1.15B25,2013-08-08 13:26:00,
2013-08-08 08:31:00,66.7,62.4,29.92,SE,136,0.0,0.0,86,0.00,,,0.00,109,WeatherCatV1.15B25,2013-08-08 13:31:00,
2013-08-08 08:36:00,66.9,62.2,29.92,SE,136,0.0,0.0,85,0.00,,,0.00,118,WeatherCatV1.15B25,2013-08-08 13:36:00,
2013-08-08 08:41:00,67.1,62.4,29.92,SE,136,0.0,1.0,85,0.00,,,0.00,132,WeatherCatV1.15B25,2013-08-08 13:41:00,
2013-08-08 08:46:00,67.4,62.7,29.92,SE,136,0.0,0.0,85,0.00,,,0.00,146,WeatherCatV1.15B25,2013-08-08 13:46:00,
2013-08-08 08:51:00,67.5,62.5,29.92,SE,136,1.0,4.0,84,0.00,,,0.00,169,WeatherCatV1.15B25,2013-08-08 13:51:00,
2013-08-08 08:56:00,67.7,63.0,29.92,SE,136,2.0,4.0,85,0.00,,,0.00,165,WeatherCatV1.15B25,2013-08-08 13:56:00,
2013-08-08 09:01:00,67.9,62.9,29.92,SE,136,0.0,2.0,84,0.00,,,0.00,172,WeatherCatV1.15B25,2013-08-08 14:01:00,
2013-08-08 09:06:00,68.1,62.7,29.92,SE,136,1.0,4.0,83,0.00,,,0.00,218,WeatherCatV1.15B25,2013-08-08 14:06:00,
2013-08-08 09:11:00,68.4,63.4,29.92,SE,136,2.0,2.0,84,0.00,,,0.00,272,WeatherCatV1.15B25,2013-08-08 14:11:00,
2013-08-08 09:16:00,68.7,63.3,29.92,SE,136,1.0,2.0,83,0.00,,,0.00,299,WeatherCatV1.15B25,2013-08-08 14:16:00,
2013-08-08 09:21:00,69.1,63.4,29.93,SE,136,0.0,4.0,82,0.00,,,0.00,271,WeatherCatV1.15B25,2013-08-08 14:21:00,
2013-08-08 09:26:00,69.3,63.2,29.93,SE,136,5.0,5.0,81,0.00,,,0.00,352,WeatherCatV1.15B25,2013-08-08 14:26:00,
2013-08-08 09:31:00,69.5,63.8,29.93,SE,136,0.0,0.0,82,0.00,,,0.00,336,WeatherCatV1.15B25,2013-08-08 14:31:00,
2013-08-08 09:36:00,69.9,63.8,29.93,SE,136,0.0,0.0,81,0.00,,,0.00,271,WeatherCatV1.15B25,2013-08-08 14:36:00,
2013-08-08 09:41:00,70.0,63.5,29.93,SE,136,4.0,4.0,80,0.00,,,0.00,316,WeatherCatV1.15B25,2013-08-08 14:41:00,
2013-08-08 09:46:00,69.7,63.2,29.93,SE,136,2.0,4.0,80,0.00,,,0.00,292,WeatherCatV1.15B25,2013-08-08 14:46:00,
2013-08-08 09:51:00,69.9,63.4,29.93,SE,136,1.0,4.0,80,0.00,,,0.00,244,WeatherCatV1.15B25,2013-08-08 14:51:00,
2013-08-08 09:56:00,70.2,63.7,29.93,SE,136,3.0,4.0,80,0.00,,,0.00,415,WeatherCatV1.15B25,2013-08-08 14:56:00,
2013-08-08 10:01:00,70.4,63.6,29.93,SE,136,0.0,4.0,79,0.00,,,0.00,299,WeatherCatV1.15B25,2013-08-08 15:01:00,
2013-08-08 10:06:00,70.7,63.9,29.94,SE,136,0.0,6.0,79,0.00,,,0.00,577,WeatherCatV1.15B25,2013-08-08 15:06:00,
2013-08-08 10:11:00,71.1,63.9,29.94,SE,136,0.0,2.0,78,0.00,,,0.00,636,WeatherCatV1.15B25,2013-08-08 15:11:00,
2013-08-08 10:16:00,72.2,64.9,29.94,SE,136,0.0,2.0,78,0.00,,,0.00,548,WeatherCatV1.15B25,2013-08-08 15:16:00,
2013-08-08 10:21:00,73.0,65.0,29.94,SE,136,0.0,3.0,76,0.00,,,0.00,784,WeatherCatV1.15B25,2013-08-08 15:21:00,
2013-08-08 10:26:00,73.5,65.5,29.93,SE,136,0.0,0.0,76,0.00,,,0.00,849,WeatherCatV1.15B25,2013-08-08 15:26:00,
2013-08-08 10:31:00,73.7,64.5,29.93,SE,136,0.0,2.0,73,0.00,,,0.00,598,WeatherCatV1.15B25,2013-08-08 15:31:00,
2013-08-08 10:36:00,73.5,64.3,29.93,SE,136,2.0,5.0,73,0.00,,,0.00,441,WeatherCatV1.15B25,2013-08-08 15:36:00,
2013-08-08 10:41:00,73.0,64.2,29.93,SE,136,0.0,1.0,74,0.00,,,0.00,424,WeatherCatV1.15B25,2013-08-08 15:41:00,
2013-08-08 10:46:00,72.9,63.7,29.92,SE,136,0.0,3.0,73,0.00,,,0.00,468,WeatherCatV1.15B25,2013-08-08 15:46:00,
2013-08-08 10:51:00,73.0,64.2,29.92,SE,136,0.0,1.0,74,0.00,,,0.00,425,WeatherCatV1.15B25,2013-08-08 15:51:00,
2013-08-08 10:56:00,73.2,64.4,29.92,SE,136,0.0,1.0,74,0.00,,,0.00,387,WeatherCatV1.15B25,2013-08-08 15:56:00,
2013-08-08 11:01:00,73.4,64.6,29.92,SE,136,0.0,0.0,74,0.00,,,0.00,510,WeatherCatV1.15B25,2013-08-08 16:01:00,
2013-08-08 11:06:00,73.8,64.6,29.92,SE,136,0.0,1.0,73,0.00,,,0.00,497,WeatherCatV1.15B25,2013-08-08 16:06:00,
2013-08-08 11:11:00,74.4,65.2,29.92,SE,136,0.0,3.0,73,0.00,,,0.00,420,WeatherCatV1.15B25,2013-08-08 16:11:00,
2013-08-08 11:16:00,74.6,64.6,29.92,SE,136,0.0,2.0,71,0.00,,,0.00,450,WeatherCatV1.15B25,2013-08-08 16:16:00,
2013-08-08 11:21:00,74.5,64.9,29.92,SE,136,0.0,0.0,72,0.00,,,0.00,512,WeatherCatV1.15B25,2013-08-08 16:21:00,
2013-08-08 11:26:00,75.1,65.4,29.92,SE,136,0.0,2.0,72,0.00,,,0.00,531,WeatherCatV1.15B25,2013-08-08 16:26:00,
2013-08-08 11:31:00,75.3,65.2,29.92,SE,136,0.0,0.0,71,0.00,,,0.00,721,WeatherCatV1.15B25,2013-08-08 16:31:00,
2013-08-08 11:36:00,76.7,66.2,29.92,SE,136,0.0,0.0,70,0.00,,,0.00,889,WeatherCatV1.15B25,2013-08-08 16:36:00,
2013-08-08 11:41:00,77.2,64.9,29.92,SE,136,0.0,1.0,66,0.00,,,0.00,758,WeatherCatV1.15B25,2013-08-08 16:41:00,
2013-08-08 11:46:00,77.7,65.8,29.92,SE,136,0.0,0.0,67,0.00,,,0.00,642,WeatherCatV1.15B25,2013-08-08 16:46:00,
2013-08-08 11:51:00,77.7,65.0,29.92,SE,136,0.0,2.0,65,0.00,,,0.00,677,WeatherCatV1.15B25,2013-08-08 16:51:00,
2013-08-08 11:56:00,77.6,65.3,29.92,SE,136,0.0,0.0,66,0.00,,,0.00,605,WeatherCatV1.15B25,2013-08-08 16:56:00,
2013-08-08 12:01:00,78.1,65.8,29.91,SE,136,0.0,4.0,66,0.00,,,0.00,601,WeatherCatV1.15B25,2013-08-08 17:01:00,
2013-08-08 12:06:00,77.9,65.2,29.92,SE,136,2.0,2.0,65,0.00,,,0.00,534,WeatherCatV1.15B25,2013-08-08 17:06:00,
2013-08-08 12:11:00,77.6,64.0,29.91,SE,136,0.0,1.0,63,0.00,,,0.00,487,WeatherCatV1.15B25,2013-08-08 17:11:00,
2013-08-08 12:16:00,77.5,63.9,29.91,SE,136,0.0,0.0,63,0.00,,,0.00,503,WeatherCatV1.15B25,2013-08-08 17:16:00,
2013-08-08 12:21:00,78.0,64.4,29.91,SE,136,1.0,2.0,63,0.00,,,0.00,647,WeatherCatV1.15B25,2013-08-08 17:21:00,
2013-08-08 12:26:00,77.6,61.1,29.91,SE,136,0.0,3.0,57,0.00,,,0.00,606,WeatherCatV1.15B25,2013-08-08 17:26:00,
2013-08-08 12:31:00,78.2,62.2,29.92,SE,136,0.0,0.0,58,0.00,,,0.00,650,WeatherCatV1.15B25,2013-08-08 17:31:00,
2013-08-08 12:36:00,78.8,62.8,29.92,SE,136,0.0,0.0,58,0.00,,,0.00,555,WeatherCatV1.15B25,2013-08-08 17:36:00,
2013-08-08 12:41:00,79.3,63.2,29.92,SE,136,0.0,0.0,58,0.00,,,0.00,573,WeatherCatV1.15B25,2013-08-08 17:41:00,
2013-08-08 12:46:00,80.1,64.5,29.92,SE,136,0.0,0.0,59,0.00,,,0.00,585,WeatherCatV1.15B25,2013-08-08 17:46:00,
2013-08-08 12:51:00,80.1,64.0,29.92,SE,134,2.0,5.0,58,0.00,,,0.00,592,WeatherCatV1.15B25,2013-08-08 17:51:00,
2013-08-08 12:56:00,79.4,62.8,29.92,SE,134,0.0,1.0,57,0.00,,,0.00,531,WeatherCatV1.15B25,2013-08-08 17:56:00,
2013-08-08 13:01:00,79.5,63.4,29.92,SE,134,0.0,1.0,58,0.00,,,0.00,485,WeatherCatV1.15B25,2013-08-08 18:01:00,
2013-08-08 13:06:00,79.7,64.6,29.92,SE,134,0.0,1.0,60,0.00,,,0.00,482,WeatherCatV1.15B25,2013-08-08 18:06:00,
2013-08-08 13:11:00,79.3,63.2,29.92,SE,134,2.0,3.0,58,0.00,,,0.00,457,WeatherCatV1.15B25,2013-08-08 18:11:00,
2013-08-08 13:16:00,78.7,64.1,29.92,SE,134,0.0,1.0,61,0.00,,,0.00,436,WeatherCatV1.15B25,2013-08-08 18:16:00,
2013-08-08 13:21:00,78.3,63.7,29.92,SE,134,0.0,1.0,61,0.00,,,0.00,399,WeatherCatV1.15B25,2013-08-08 18:21:00,
2013-08-08 13:26:00,78.3,63.7,29.92,SE,134,2.0,4.0,61,0.00,,,0.00,374,WeatherCatV1.15B25,2013-08-08 18:26:00,
2013-08-08 13:31:00,77.9,62.9,29.92,SE,132,0.0,2.0,60,0.00,,,0.00,357,WeatherCatV1.15B25,2013-08-08 18:31:00,
2013-08-08 13:36:00,77.8,62.8,29.93,SE,132,0.0,1.0,60,0.00,,,0.00,339,WeatherCatV1.15B25,2013-08-08 18:36:00,
2013-08-08 13:41:00,77.9,62.4,29.93,SE,133,0.0,3.0,59,0.00,,,0.00,341,WeatherCatV1.15B25,2013-08-08 18:41:00,
2013-08-08 13:46:00,77.9,62.9,29.93,SE,132,0.0,3.0,60,0.00,,,0.00,341,WeatherCatV1.15B25,2013-08-08 18:46:00,
2013-08-08 13:51:00,78.0,62.0,29.93,SE,132,0.0,0.0,58,0.00,,,0.00,353,WeatherCatV1.15B25,2013-08-08 18:51:00,
2013-08-08 13:56:00,78.3,62.8,29.93,SE,133,0.0,2.0,59,0.00,,,0.00,341,WeatherCatV1.15B25,2013-08-08 18:56:00,
2013-08-08 14:01:00,78.3,63.7,29.93,SE,133,0.0,3.0,61,0.00,,,0.00,318,WeatherCatV1.15B25,2013-08-08 19:01:00,
2013-08-08 14:06:00,78.2,65.0,29.93,SE,132,0.0,0.0,64,0.00,,,0.00,304,WeatherCatV1.15B25,2013-08-08 19:06:00,
2013-08-08 14:11:00,77.8,64.6,29.93,SE,132,0.0,3.0,64,0.00,,,0.00,297,WeatherCatV1.15B25,2013-08-08 19:11:00,
2013-08-08 14:16:00,77.6,64.4,29.93,SE,132,0.0,3.0,64,0.00,,,0.00,285,WeatherCatV1.15B25,2013-08-08 19:16:00,
2013-08-08 14:21:00,77.4,64.2,29.93,SE,132,2.0,2.0,64,0.00,,,0.00,258,WeatherCatV1.15B25,2013-08-08 19:21:00,
2013-08-08 14:26:00,77.1,64.4,29.93,SE,132,2.0,2.0,65,0.00,,,0.00,246,WeatherCatV1.15B25,2013-08-08 19:26:00,
2013-08-08 14:31:00,76.8,64.6,29.93,SE,132,0.0,0.0,66,0.00,,,0.00,244,WeatherCatV1.15B25,2013-08-08 19:31:00,
2013-08-08 14:36:00,76.9,65.1,29.93,SE,132,3.0,3.0,67,0.00,,,0.00,241,WeatherCatV1.15B25,2013-08-08 19:36:00,
2013-08-08 14:41:00,76.8,64.1,29.93,SE,132,0.0,0.0,65,0.00,,,0.00,244,WeatherCatV1.15B25,2013-08-08 19:41:00,
2013-08-08 14:46:00,76.6,63.9,29.93,SE,132,0.0,2.0,65,0.00,,,0.00,241,WeatherCatV1.15B25,2013-08-08 19:46:00,
2013-08-08 14:51:00,76.3,63.2,29.93,SE,132,0.0,1.0,64,0.00,,,0.00,236,WeatherCatV1.15B25,2013-08-08 19:51:00,
2013-08-08 14:56:00,76.2,63.6,29.93,SE,132,0.0,0.0,65,0.00,,,0.00,234,WeatherCatV1.15B25,2013-08-08 19:56:00,
2013-08-08 15:01:00,76.3,64.1,29.93,SE,132,0.0,1.0,66,0.00,,,0.00,239,WeatherCatV1.15B25,2013-08-08 20:01:00,
2013-08-08 15:06:00,76.3,64.5,29.93,SE,132,0.0,1.0,67,0.00,,,0.00,258,WeatherCatV1.15B25,2013-08-08 20:06:00,
2013-08-08 15:11:00,76.3,64.1,29.93,SE,132,0.0,1.0,66,0.00,,,0.00,271,WeatherCatV1.15B25,2013-08-08 20:11:00,
2013-08-08 15:16:00,76.4,65.0,29.93,SE,132,0.0,0.0,68,0.00,,,0.00,276,WeatherCatV1.15B25,2013-08-08 20:16:00,
2013-08-08 15:21:00,76.6,64.8,29.93,SE,132,0.0,1.0,67,0.00,,,0.00,288,WeatherCatV1.15B25,2013-08-08 20:21:00,
2013-08-08 15:26:00,76.8,65.0,29.93,SE,132,1.0,2.0,67,0.00,,,0.00,299,WeatherCatV1.15B25,2013-08-08 20:26:00,
2013-08-08 15:31:00,76.5,64.3,29.93,SE,132,0.0,2.0,66,0.00,,,0.00,290,WeatherCatV1.15B25,2013-08-08 20:31:00,
2013-08-08 15:36:00,76.5,64.3,29.93,SE,132,0.0,0.0,66,0.00,,,0.00,294,WeatherCatV1.15B25,2013-08-08 20:36:00,
2013-08-08 15:41:00,76.1,63.9,29.93,SE,133,0.0,0.0,66,0.00,,,0.00,294,WeatherCatV1.15B25,2013-08-08 20:41:00,
2013-08-08 15:46:00,75.9,64.1,29.93,SE,132,0.0,1.0,67,0.00,,,0.00,267,WeatherCatV1.15B25,2013-08-08 20:46:00,
2013-08-08 15:51:00,75.9,65.0,29.93,SE,132,0.0,0.0,69,0.00,,,0.00,244,WeatherCatV1.15B25,2013-08-08 20:51:00,
2013-08-08 15:56:00,75.7,64.4,29.93,SE,132,0.0,2.0,68,0.00,,,0.00,237,WeatherCatV1.15B25,2013-08-08 20:56:00,
2013-08-08 16:01:00,75.6,64.7,29.93,SE,132,0.0,1.0,69,0.00,,,0.00,227,WeatherCatV1.15B25,2013-08-08 21:01:00,
2013-08-08 16:06:00,75.7,65.2,29.93,SE,132,0.0,0.0,70,0.00,,,0.00,218,WeatherCatV1.15B25,2013-08-08 21:06:00,
2013-08-08 16:11:00,75.8,64.9,29.93,SE,132,0.0,0.0,69,0.00,,,0.00,218,WeatherCatV1.15B25,2013-08-08 21:11:00,
2013-08-08 16:16:00,75.8,64.5,29.93,SE,132,0.0,0.0,68,0.00,,,0.00,225,WeatherCatV1.15B25,2013-08-08 21:16:00,
2013-08-08 16:21:00,75.6,63.9,29.93,SE,132,1.0,1.0,67,0.00,,,0.00,223,WeatherCatV1.15B25,2013-08-08 21:21:00,
2013-08-08 16:26:00,75.5,64.6,29.93,SE,132,0.0,0.0,69,0.00,,,0.00,221,WeatherCatV1.15B25,2013-08-08 21:26:00,
2013-08-08 16:31:00,75.5,64.6,29.93,SE,132,0.0,1.0,69,0.00,,,0.00,223,WeatherCatV1.15B25,2013-08-08 21:31:00,
2013-08-08 16:36:00,75.4,64.9,29.93,SE,132,0.0,0.0,70,0.00,,,0.00,227,WeatherCatV1.15B25,2013-08-08 21:36:00,
2013-08-08 16:41:00,75.4,64.9,29.93,SE,132,0.0,0.0,70,0.00,,,0.00,221,WeatherCatV1.15B25,2013-08-08 21:41:00,
2013-08-08 16:46:00,75.2,64.3,29.93,SE,132,0.0,2.0,69,0.00,,,0.00,202,WeatherCatV1.15B25,2013-08-08 21:46:00,
2013-08-08 16:51:00,75.1,65.0,29.93,SE,132,0.0,0.0,71,0.00,,,0.00,179,WeatherCatV1.15B25,2013-08-08 21:51:00,
2013-08-08 16:56:00,75.1,65.4,29.93,SE,132,0.0,0.0,72,0.00,,,0.00,171,WeatherCatV1.15B25,2013-08-08 21:56:00,
2013-08-08 17:01:00,75.1,65.4,29.94,SE,132,0.0,0.0,72,0.00,,,0.00,169,WeatherCatV1.15B25,2013-08-08 22:01:00,
2013-08-08 17:06:00,75.2,65.9,29.93,SE,132,0.0,0.0,73,0.00,,,0.00,160,WeatherCatV1.15B25,2013-08-08 22:06:00,
2013-08-08 17:11:00,75.1,65.8,29.93,SE,132,0.0,0.0,73,0.00,,,0.00,151,WeatherCatV1.15B25,2013-08-08 22:11:00,
2013-08-08 17:16:00,74.9,65.6,29.93,SE,132,2.0,2.0,73,0.00,,,0.00,141,WeatherCatV1.15B25,2013-08-08 22:16:00,
2013-08-08 17:21:00,74.6,65.7,29.93,SE,132,0.0,1.0,74,0.00,,,0.00,130,WeatherCatV1.15B25,2013-08-08 22:21:00,
2013-08-08 17:26:00,74.5,66.0,29.93,SE,132,0.0,0.0,75,0.00,,,0.00,125,WeatherCatV1.15B25,2013-08-08 22:26:00,
2013-08-08 17:31:00,74.4,66.7,29.93,SE,132,0.0,0.0,77,0.00,,,0.00,125,WeatherCatV1.15B25,2013-08-08 22:31:00,
2013-08-08 17:36:00,74.4,67.1,29.93,SE,132,0.0,0.0,78,0.00,,,0.00,125,WeatherCatV1.15B25,2013-08-08 22:36:00,
2013-08-08 17:41:00,74.6,67.3,29.93,SE,132,0.0,0.0,78,0.00,,,0.00,121,WeatherCatV1.15B25,2013-08-08 22:41:00,
2013-08-08 17:46:00,74.7,67.4,29.93,SE,132,0.0,0.0,78,0.00,,,0.00,116,WeatherCatV1.15B25,2013-08-08 22:46:00,
2013-08-08 17:51:00,74.5,66.8,29.93,SE,132,0.0,0.0,77,0.00,,,0.00,118,WeatherCatV1.15B25,2013-08-08 22:51:00,
2013-08-08 17:56:00,74.6,67.6,29.93,SE,132,0.0,0.0,79,0.00,,,0.00,123,WeatherCatV1.15B25,2013-08-08 22:56:00,
2013-08-08 18:01:00,74.5,67.2,29.93,SE,132,0.0,0.0,78,0.00,,,0.00,125,WeatherCatV1.15B25,2013-08-08 23:01:00,
2013-08-08 18:06:00,74.4,67.1,29.93,SE,132,0.0,0.0,78,0.00,,,0.00,127,WeatherCatV1.15B25,2013-08-08 23:06:00,
2013-08-08 18:11:00,74.2,66.9,29.93,SE,132,0.0,0.0,78,0.00,,,0.00,127,WeatherCatV1.15B25,2013-08-08 23:11:00,
2013-08-08 18:16:00,74.2,66.9,29.93,SE,132,0.0,3.0,78,0.00,,,0.00,128,WeatherCatV1.15B25,2013-08-08 23:16:00,
2013-08-08 18:21:00,74.2,66.9,29.93,SE,132,0.0,0.0,78,0.00,,,0.00,130,WeatherCatV1.15B25,2013-08-08 23:21:00,
2013-08-08 18:26:00,74.3,67.0,29.93,SE,132,0.0,1.0,78,0.00,,,0.00,127,WeatherCatV1.15B25,2013-08-08 23:26:00,
2013-08-08 18:31:00,74.3,67.0,29.92,SE,132,1.0,1.0,78,0.00,,,0.00,105,WeatherCatV1.15B25,2013-08-08 23:31:00,
2013-08-08 18:36:00,74.2,67.3,29.92,SE,132,0.0,1.0,79,0.00,,,0.00,98,WeatherCatV1.15B25,2013-08-08 23:36:00,
2013-08-08 18:41:00,74.1,67.2,29.92,SE,132,0.0,0.0,79,0.00,,,0.00,104,WeatherCatV1.15B25,2013-08-08 23:41:00,
2013-08-08 18:46:00,74.2,67.3,29.92,SE,132,0.0,2.0,79,0.00,,,0.00,107,WeatherCatV1.15B25,2013-08-08 23:46:00,
2013-08-08 18:51:00,74.1,67.2,29.92,SE,132,0.0,0.0,79,0.00,,,0.00,93,WeatherCatV1.15B25,2013-08-08 23:51:00,
2013-08-08 18:56:00,74.1,67.2,29.92,SE,132,0.0,0.0,79,0.00,,,0.00,77,WeatherCatV1.15B25,2013-08-08 23:56:00,
2013-08-08 19:01:00,74.1,67.2,29.92,SE,132,0.0,0.0,79,0.00,,,0.00,60,WeatherCatV1.15B25,2013-08-09 00:01:00,
2013-08-08 19:06:00,73.9,67.0,29.92,SE,132,0.0,2.0,79,0.00,,,0.00,54,WeatherCatV1.15B25,2013-08-09 00:06:00,
2013-08-08 19:11:00,73.7,67.1,29.92,SE,132,0.0,1.0,80,0.00,,,0.00,54,WeatherCatV1.15B25,2013-08-09 00:11:00,
2013-08-08 19:16:00,73.6,67.0,29.92,SE,132,0.0,0.0,80,0.00,,,0.00,47,WeatherCatV1.15B25,2013-08-09 00:16:00,
2013-08-08 19:21:00,73.4,66.8,29.92,SE,132,0.0,1.0,80,0.00,,,0.00,39,WeatherCatV1.15B25,2013-08-09 00:21:00,
2013-08-08 19:26:00,73.3,66.7,29.92,SE,132,0.0,0.0,80,0.00,,,0.00,33,WeatherCatV1.15B25,2013-08-09 00:26:00,
2013-08-08 19:31:00,73.2,66.6,29.92,SE,132,0.0,0.0,80,0.00,,,0.00,32,WeatherCatV1.15B25,2013-08-09 00:31:00,
2013-08-08 19:36:00,73.1,66.6,29.92,SE,132,0.0,0.0,80,0.00,,,0.00,33,WeatherCatV1.15B25,2013-08-09 00:36:00,
2013-08-08 19:41:00,73.0,66.8,29.92,SE,132,0.0,0.0,81,0.00,,,0.00,30,WeatherCatV1.15B25,2013-08-09 00:41:00,
2013-08-08 19:46:00,72.9,66.7,29.92,SE,132,0.0,0.0,81,0.00,,,0.00,26,WeatherCatV1.15B25,2013-08-09 00:46:00,
2013-08-08 19:51:00,72.8,66.6,29.92,SE,132,0.0,0.0,81,0.00,,,0.00,23,WeatherCatV1.15B25,2013-08-09 00:51:00,
2013-08-08 19:56:00,72.8,66.6,29.92,SE,132,0.0,0.0,81,0.00,,,0.00,21,WeatherCatV1.15B25,2013-08-09 00:56:00,
2013-08-08 20:01:00,72.7,66.5,29.92,SE,132,0.0,0.0,81,0.00,,,0.00,21,WeatherCatV1.15B25,2013-08-09 01:01:00,
2013-08-08 20:06:00,72.6,66.4,29.92,SE,132,0.0,0.0,81,0.00,,,0.00,25,WeatherCatV1.15B25,2013-08-09 01:06:00,
2013-08-08 20:11:00,72.5,66.7,29.91,SE,132,0.0,2.0,82,0.00,,,0.00,26,WeatherCatV1.15B25,2013-08-09 01:11:00,
2013-08-08 20:16:00,72.3,66.5,29.92,SE,132,0.0,0.0,82,0.00,,,0.00,30,WeatherCatV1.15B25,2013-08-09 01:16:00,
2013-08-08 20:21:00,72.2,66.7,29.92,SE,132,0.0,0.0,83,0.00,,,0.00,28,WeatherCatV1.15B25,2013-08-09 01:21:00,
2013-08-08 20:26:00,72.1,66.6,29.91,SE,132,0.0,0.0,83,0.00,,,0.00,26,WeatherCatV1.15B25,2013-08-09 01:26:00,
2013-08-08 20:31:00,72.0,66.5,29.92,SE,132,0.0,0.0,83,0.00,,,0.00,23,WeatherCatV1.15B25,2013-08-09 01:31:00,
2013-08-08 20:36:00,72.0,66.5,29.92,SE,132,0.0,0.0,83,0.00,,,0.00,11,WeatherCatV1.15B25,2013-08-09 01:36:00,
2013-08-08 20:41:00,71.7,66.6,29.92,SE,132,1.0,1.0,84,0.00,,,0.00,0,WeatherCatV1.15B25,2013-08-09 01:41:00,
2013-08-08 20:46:00,71.5,66.4,29.92,SE,132,0.0,0.0,84,0.00,,,0.00,0,WeatherCatV1.15B25,2013-08-09 01:46:00,
2013-08-08 20:51:00,71.3,66.2,29.91,SE,132,0.0,0.0,84,0.00,,,0.00,0,WeatherCatV1.15B25,2013-08-09 01:51:00,
2013-08-08 20:55:00,71.3,66.5,29.92,SE,132,0.0,0.0,85,0.00,,,0.00,0,WeatherCatV1.15B25,2013-08-09 01:55:00,
2013-08-08 21:00:00,71.1,66.4,29.92,SE,132,0.0,0.0,85,0.00,,,0.00,0,WeatherCatV1.15B25,2013-08-09 02:00:00,
2013-08-08 21:05:00,71.0,66.3,29.92,SE,132,0.0,0.0,85,0.00,,,0.00,0,WeatherCatV1.15B25,2013-08-09 02:05:00,
2013-08-08 21:10:00,70.8,66.4,29.92,SE,132,0.0,0.0,86,0.00,,,0.00,0,WeatherCatV1.15B25,2013-08-09 02:10:00,
2013-08-08 21:15:00,70.7,66.3,29.92,SE,132,0.0,2.0,86,0.00,,,0.00,0,WeatherCatV1.15B25,2013-08-09 02:15:00,
2013-08-08 21:20:00,70.6,66.5,29.92,SE,132,0.0,2.0,87,0.00,,,0.00,0,WeatherCatV1.15B25,2013-08-09 02:20:00,
2013-08-08 21:25:00,70.5,66.4,29.92,SE,132,0.0,0.0,87,0.00,,,0.00,0,WeatherCatV1.15B25,2013-08-09 02:25:00,
2013-08-08 21:30:00,70.4,66.3,29.92,SE,132,0.0,0.0,87,0.00,,,0.00,0,WeatherCatV1.15B25,2013-08-09 02:30:00,
2013-08-08 21:35:00,70.3,66.6,29.92,SE,132,0.0,0.0,88,0.00,,,0.00,0,WeatherCatV1.15B25,2013-08-09 02:35:00,
2013-08-08 21:40:00,70.1,66.4,29.92,SE,132,1.0,4.0,88,0.00,,,0.00,0,WeatherCatV1.15B25,2013-08-09 02:40:00,
2013-08-08 21:45:00,70.0,66.3,29.92,SE,132,0.0,1.0,88,0.00,,,0.00,0,WeatherCatV1.15B25,2013-08-09 02:45:00,
2013-08-08 21:50:00,69.8,66.1,29.93,SE,132,0.0,0.0,88,0.00,,,0.00,0,WeatherCatV1.15B25,2013-08-09 02:50:00,
2013-08-08 21:55:00,69.7,66.0,29.93,SE,132,0.0,0.0,88,0.00,,,0.00,0,WeatherCatV1.15B25,2013-08-09 02:55:00,
2013-08-08 22:00:00,69.6,66.2,29.94,SE,132,0.0,0.0,89,0.00,,,0.00,0,WeatherCatV1.15B25,2013-08-09 03:00:00,
2013-08-08 22:05:00,69.5,65.8,29.94,SE,132,0.0,0.0,88,0.00,,,0.00,0,WeatherCatV1.15B25,2013-08-09 03:05:00,
2013-08-08 22:10:00,69.3,65.6,29.94,SE,132,0.0,0.0,88,0.00,,,0.00,0,WeatherCatV1.15B25,2013-08-09 03:10:00,
2013-08-08 22:15:00,69.2,65.8,29.94,SE,132,0.0,0.0,89,0.00,,,0.00,0,WeatherCatV1.15B25,2013-08-09 03:15:00,
2013-08-08 22:20:00,69.0,65.6,29.95,SE,132,0.0,0.0,89,0.00,,,0.00,0,WeatherCatV1.15B25,2013-08-09 03:20:00,
2013-08-08 22:25:00,69.0,65.6,29.95,SE,132,0.0,0.0,89,0.00,,,0.00,0,WeatherCatV1.15B25,2013-08-09 03:25:00,
2013-08-08 22:30:00,68.8,65.4,29.94,SE,132,0.0,0.0,89,0.00,,,0.00,0,WeatherCatV1.15B25,2013-08-09 03:30:00,
2013-08-08 22:35:00,68.7,65.3,29.94,SE,132,0.0,0.0,89,0.00,,,0.00,0,WeatherCatV1.15B25,2013-08-09 03:35:00,
2013-08-08 22:40:00,68.6,65.5,29.95,SE,132,0.0,1.0,90,0.00,,,0.00,0,WeatherCatV1.15B25,2013-08-09 03:40:00,
2013-08-08 22:45:00,68.6,65.5,29.95,SE,132,0.0,0.0,90,0.00,,,0.00,0,WeatherCatV1.15B25,2013-08-09 03:45:00,
2013-08-08 22:46:00,68.5,65.4,29.95,SE,132,0.0,0.0,90,0.00,,,0.00,0,WeatherCatV1.15B25,2013-08-09 03:46:00,
2013-08-08 22:51:00,68.5,65.8,29.95,SE,132,1.0,1.0,91,0.00,,,0.00,0,WeatherCatV1.15B25,2013-08-09 03:51:00,
2013-08-08 22:56:00,68.4,65.7,29.95,SE,132,0.0,2.0,91,0.00,,,0.00,0,WeatherCatV1.15B25,2013-08-09 03:56:00,
2013-08-08 23:01:00,68.2,65.5,29.95,SE,132,0.0,0.0,91,0.00,,,0.00,0,WeatherCatV1.15B25,2013-08-09 04:01:00,
2013-08-08 23:06:00,68.1,65.4,29.95,SE,132,0.0,2.0,91,0.00,,,0.00,0,WeatherCatV1.15B25,2013-08-09 04:06:00,
2013-08-08 23:11:00,67.9,65.2,29.95,SE,132,0.0,3.0,91,0.00,,,0.00,0,WeatherCatV1.15B25,2013-08-09 04:11:00,
2013-08-08 23:16:00,67.9,65.5,29.95,SE,132,0.0,2.0,92,0.00,,,0.00,0,WeatherCatV1.15B25,2013-08-09 04:16:00,
2013-08-08 23:21:00,67.7,65.3,29.95,SE,132,1.0,3.0,92,0.00,,,0.00,0,WeatherCatV1.15B25,2013-08-09 04:21:00,
2013-08-08 23:26:00,67.6,65.2,29.95,SE,132,5.0,5.0,92,0.00,,,0.00,0,WeatherCatV1.15B25,2013-08-09 04:26:00,
2013-08-08 23:31:00,67.5,65.1,29.96,SE,132,1.0,4.0,92,0.00,,,0.00,0,WeatherCatV1.15B25,2013-08-09 04:31:00,
2013-08-08 23:36:00,67.4,65.0,29.95,SE,132,0.0,4.0,92,0.00,,,0.00,0,WeatherCatV1.15B25,2013-08-09 04:36:00,
2013-08-08 23:41:00,67.2,64.8,29.95,SE,132,0.0,3.0,92,0.00,,,0.00,0,WeatherCatV1.15B25,2013-08-09 04:41:00,
2013-08-08 23:46:00,67.1,64.7,29.95,SE,132,0.0,1.0,92,0.00,,,0.00,0,WeatherCatV1.15B25,2013-08-09 04:46:00,
2013-08-08 23:51:00,67.0,64.6,29.95,SE,132,3.0,4.0,92,0.00,,,0.00,0,WeatherCatV1.15B25,2013-08-09 04:51:00,
2013-08-08 23:56:00,66.9,64.5,29.95,SE,132,0.0,3.0,92,0.00,,,0.00,0,WeatherCatV1.15B25,2013-08-09 04:56:00,